Location: Asheville, NC
(35.6000°N, 82.5500°W)
Time: 00:28:42
(UTC-04:00)

Vanguard 1 Rocket - Pass Details

Date: 12 March 2018
Orbit: 653 x 4224 km, 34.3° (Epoch: 22 June)

Event Time Altitude Azimuth Distance (km) Brightness Sun altitude
Rises 22:23:11 0° 274° (W) 4,774 12.0 -34.2°
Reaches altitude 10° 22:25:40 10° 273° (W) 4,109 11.4 -34.6°
Maximum altitude 22:37:41 83° 188° (S) 2,786 9.5 -36.8°
Enters shadow 22:42:27 61° 110° (ESE) 3,417 9.8 -37.7°
Drops below altitude 10° 23:00:51 10° 104° (ESE) 7,219 - -40.9°
Sets 23:07:02 0° 104° (ESE) 8,423 - -41.9°
